Погода в Тевризе

Погода в Тевризе : погода сейчас, прогноз погоды и архив. Всё, что Вы хотите узнать о погоде в Тевризе!

Хотите узнать прогноз погоды в Тевризе? Тогда Вам сюда: Погода в Тевризе

Поиск расширенной информации на нашем сайте:

Другие новости

Новости СМИ2

Главная страница сайта

Новости сайта

02.10.2013

Напоминаем, что на нашем новом сайте вы можете получить высокодетализированные прогнозы погоды по пунктам России, СНГ и мира (включающие важные для авиации метеовеличины, такие как направление и скорость ветра, видимость, явления погоды, количество и форма облачности, нижняя и верхняя граница облачности), а также ознакомиться с разнообразными материалами по авиационной метеорологии и подборкой полезных ссылок на эту тему.

Сайт Метеоцентр.Азия посвящён разработке технологий оптимизации авиаметеорологического обслуживания, включая проектирование и перспективное создание нескольких автоматизированных авиаметеорологических систем:
- система выпуска высокодетальных прогностических карт явлений погоды для нижнего воздушного пространства по России и ближнему зарубежью;
- система верификации прогнозов TAF (выпускаемых синоптиками официальных АМСГ РФ и ближнего зарубежья) и AUTOTAF (выпускаемых сайтом Метеоцентр.Азия) - выявление ошибок, онлайн-сопоставление с фактической погодой METAR, автоматическое внесение коррективов в прогнозы при резком отклонении фактической погоды от прогноза, подсчёт оправдываемости прогнозов по элементам и в целом;
- система обработки, анализа и отображения авиаметеорологической информации для применения провайдерами метеорологической информации.

Рекомендуем: Супер прогрессивный стабилизатор переменного напряжения

Погода в Тевризе - сегодня

Время (UTC), дата Ветер
(°,м/с) 
Видим.   Явления Облачность Т
(°С)
Тd
(°С)
f(%) Тe
(°С)
Pmin
(гПа)
dP
(гПа)
Po
(мм)
O2
(г/м3)
Тmin Tmax R s Состояние
почвы
00 24.06.17 100 (В) 20000 м    10/0 средняя, верхняя 
[Ac cuf|Cs]
+18.3 +18 98 +33  1004.1  -0.7  747  278           
03 24.06.17 120 (ЮВ) 20000 м    10/3 600 м кучево-дожд., средняя, верхняя 
[Cb cap|Ac lent|Cs]
+21.1 +16.3 74 +32  1003.8  -0.3  747  276  +14.5        сухая 
06 24.06.17 160 (Ю) н/о    н/о 
+25 +16.8 60 +37  1003.2  -0.5  747  272           
09 24.06.17 160 (Ю) 20000 м    10/4 600 м кучево-дожд., верхняя 
[Cb cap|Ci fib]
+25.4 +15.6 55 +35  1002  -1.2  746  272           
12 24.06.17 230 (ЮЗ) н/о    н/о 
+22.5 +16.2 68 +33  1002.5  0.4  746  274           
15 24.06.17 тихо ()   20000 м    10/4 600 м кучево-дожд., средняя 
[Cb cap|Ac und]
+20.9 +17.3 80 +34  1002.7  0.2  746  275    +26.7       
18 24.06.17 180 (Ю) 10 км  {ливн. осадки}  10/5 600 м кучево-дожд., средняя 
[Cb cap|Ac und]
+17.8 +17.3 97 +32  1002.8  746  278           
21 24.06.17 260 (З) н/о    н/о 
+15.6 +15.6 100 +27  1002.5  -0.4  746  281           
00 25.06.17 310 (СЗ) 20000 м    6/6 300 м кучево-дожд. 
[Cb cap]
+16.8 +16.8 100 +30  1003.5  1.1  747  280           
03 25.06.17 310 (СЗ) 20000 м    3/3 600 м 
[Cu hum]
+20.3 +15.8 75 +30  1004.7  1.2  748  277  +14    0.0    сухая 
06 25.06.17 300 (СЗ) н/о    н/о 
+23.9 +11.1 45 +27  1004.9  0.2  748  275           
09 25.06.17 280 (З) 20000 м    3/1 1000 м средняя 
[Cu hum|Ac cuf]
+25 +10 39 +26  1005.3  0.2  748  274           
12 25.06.17 290 (З) н/о    н/о 
+25.5 +9.6 37 +26  1005.3  748  274           
15 25.06.17 тихо ()   20000 м    3/1 1000 м верхняя 
[Cu hum|Ci]
+24.4 +15.3 57 +34  1005.3  748  274    +25.8       
18 25.06.17 тихо ()   10 км  местами туман поземный  8/0 средняя, верхняя 
[Ac lent|Ci]
+13 +13 100 +18  1005.9  0.3  749  285           
21 25.06.17 090 (В) 10 км    9/0 верхняя 
[Ci fib]
+12.6 +12.6 100 +19  1004.8  -1.1  748  286           
00 26.06.17 100 (В) 20000 м    10/0 верхняя 
[Ci]
+15 +12.9 87 +21  1004.2  -0.5  747  283           
03 26.06.17 110 (В) 20000 м    9/1 600 м кучево-дожд., средняя 
[Cb cap|Ac cast]
+20.6 +14.5 68 +29  1002.6  -1.4  746  277  +10.2        сухая 
06 26.06.17 190 (Ю) н/о    н/о 
+22 +17.4 75 +35  1001.3  -1.3  745  274           
09 26.06.17 220 (ЮЗ) 20000 м    10/4 600 м кучево-дожд., верхняя 
[Cb cap|Ci]
+25.1 +14 50 +32  1001.1  -0.1  745  272           
12 26.06.17 240 (ЮЗ) 7-11{14}  н/о    н/о 
+19.8 +11.5 59 +23  1003.4  2.1  747  278           
15 26.06.17 250 (З) 4{11}  20000 м    9/9 900 м кучево-дожд. 
[Cb cap]
+17.4 +11.9 70 +22  1004.6  1.1  748  281    +25.6  0.0     
18 26.06.17 230 (ЮЗ) 10 км    9/9 1500 м 
[Sc]
+16.1 +12.1 77 +20  1005.5  0.8  748  282           
21 26.06.17 220 (ЮЗ) 10 км    8/0 средняя, верхняя 
[Ac lent|Ci fib]
+12.7 +13  1005.1  -0.5  748  288           
00 27.06.17 230 (ЮЗ) 20000 м    1/0 верхняя 
[Ci fib]
+12.9 +11.4 91 +16  1005.3  0.3  748  286           
Время (UTC), дата Ветер
(°,м/с) 
Видим.   Явления Облачность Т
(°С)
Тd
(°С)
f(%) Тe
(°С)
Pmin
(гПа)
dP
(гПа)
Po
(мм)
O2
(г/м3)
Тmin Tmax R s Состояние
почвы

Для получения пояснительной информации подведите курсор к названию столбца.

ПОГОДА в Тевризе - архив

Всё, что Вы хотите узнать о погоде в Тевризе - удобно и подробно!

Выберите нужную дату (начиная с 1 января 2015* года) и нажмите кнопку "Найти".
Будут отображены архивные сводки погоды по пункту Тевриз, начиная с указанной даты.


Отображать данные в формате CSV (для использования в таблицах Excel)


Внимание! Наш архив погоды предназначен исключительно для личного некоммерческого использования в познавательных целях. Если Вам необходимы официальные справки о состоянии погоды (для производственных, юридических, коммерческих и т.п. целей), обращайтесь в органы Росгидромета.

*Примечание: данная дата относится к архиву по метеостанциям СССР (Россия, СНГ, Балтия).
Архив по метеостанциям Зарубежной Европы и Азии (кроме Китая) хранится 10 дней, по другим регионам земного шара (Китай, Африка, Америка, Австралия, Океания) - 1 день.

Тевриз - район местоположения метеостанции


Название, широта, долгота, высота метеостанции:
Тевриз 57.5°ш. 72.4°д. 67 м над ур. моря [Российская Федерация]

Дополнительная информация

В oтличие oт бoльшинства пoгoдных сайтoв мы публикуем пoдрoбную метеoинфoрмацию в детальнoм прoфессиoнальнoм фoрмате.

Характеристики температуры и влажнoсти вoздуха измеряются на высoте 2 м в тени вдали oт зданий и деревьев.
Скoрoсть ветра измеряется на высoте 10 м (на урoвне рoста челoвека скoрoсть ветра ниже в 1.5-2 раза). Если метеoстанция нахoдится в гoрoде или в лесу, тo скoрoсть ветра занижена на 2-4 м/с пo сравнению с oткрытым местoм. Скoрoсть ветра над акватoриями крупных рек и oзёр, а также на вершинах хoлмoв на 2-5 м/с выше, чем в oбычных услoвиях.
Атмoсфернoе давление в разных тoчках местнoсти мoжет значительнo oтличаться oт давления на метеoстанции, в зависимoсти oт услoвий рельефа (при пoдъёме на 10 м давление пoнижается примернo на 1 мм рт.ст.).